Flag for Chile Weather past 2 weeks in Easter Island, Chile

Now
77 °F

Scattered clouds.


Feels Like: 79 °F
Forecast: 66 / 77 °F
Wind: 6 mph from Northwest

Location: Isla De Pascua


UV Index: 5 (Moderate)

Visibility: N/A


Pressure: 30.15 "Hg

Humidity: 65%

Dew point: 64 °F

Location of Easter IslandLocation

Historic Weather in Easter Island

°F

Easter Island temperature yesterday

Maximum temperature yesterday: 79 °F (at 2:00 PM)
Minimum temperature yesterday: 72 °F (at 12:00 AM)
Average temperature yesterday: 73 °F

Past Weeks' High & Low Weather Summary

 TemperatureHumidityPressure
High79 °F (Apr 5, 3:00 PM)94% (Apr 6, 8:00 PM)30.27 "Hg (Apr 6, 8:00 PM)
Low64 °F (Apr 6, 8:00 AM)53% (Apr 17, 8:00 AM)30.04 "Hg (Apr 18, 5:00 PM)
Average72 °F75%30.16 "Hg
* Reported Apr 5 1:00 PM — Apr 20 1:00 PM, Easter Island, Weather by CustomWeather, © 2014

Note: Actual official high and low records may vary slightly from our data, if they occured in-between our weather recording intervals... More about our weather records

Advertising

Historic Weather Conditions — Data for Previous 24 hours

 ConditionsComfort  
Time TempWeatherWind HumidityBarometerVisibility
1:00 PM
Apr 20
77 °FScattered clouds.6 mph65%30.15 "HgN/A
12:00 PM75 °FScattered clouds.5 mph74%30.15 "HgN/A
11:00 AM73 °FScattered clouds.2 mph74%30.15 "HgN/A
10:00 AM73 °FPassing clouds.2 mph74%30.12 "HgN/A
9:00 AM70 °FPassing clouds.No wind78%30.12 "HgN/A
8:00 AM68 °FPassing clouds.5 mph88%30.09 "HgN/A
7:00 AM70 °FPassing clouds.5 mph83%30.09 "HgN/A
6:00 AM70 °FPassing clouds.5 mph83%30.09 "HgN/A
5:00 AM72 °FPassing clouds.6 mph78%30.09 "HgN/A
4:00 AM72 °FPassing clouds.5 mph78%30.09 "HgN/A
3:00 AM72 °FPassing clouds.5 mph78%30.09 "HgN/A
2:00 AM72 °FPassing clouds.7 mph78%30.09 "HgN/A
1:00 AM72 °FPassing clouds.6 mph78%30.09 "HgN/A
12:00 AM72 °FPassing clouds.6 mph78%30.12 "HgN/A
11:00 PM
Apr 19
72 °FPassing clouds.6 mph78%30.12 "HgN/A
10:00 PM72 °FPassing clouds.6 mph78%30.09 "HgN/A
9:00 PM72 °FPartly sunny.5 mph78%30.07 "HgN/A
8:00 PM73 °FPartly sunny.6 mph74%30.07 "HgN/A
7:00 PM73 °FPartly sunny.6 mph78%30.07 "HgN/A
6:00 PM75 °FBroken clouds.7 mph74%30.07 "HgN/A
5:00 PM77 °FScattered clouds.8 mph69%30.07 "HgN/A
4:00 PM77 °FScattered clouds.8 mph69%30.07 "HgN/A
3:00 PM79 °FScattered clouds.9 mph65%30.07 "HgN/A
2:00 PM79 °FScattered clouds.8 mph65%30.07 "HgN/A
Weather by CustomWeather, © 2014

See weather overview